When you browse on this site, cookies collect data to enhance your experience and personalize the content and advertising you see.
Visit our Privacy Policy to learn more. By continuing to use the site, you agree to this use of cookies and data.
  • In Hungary
  • List of Countries
  • For 7 days
  • Water Temperature
  • Satellite Maps
  • Weather Map
  • News
  • Weather Widgets
  • user-avatar
    Login

    Hourly Weather Cincinnati

    Today, 18 February, Monday

    Time Temperature Precipitation Wind Pressure Humidity
    00:00 -2°C° 0 mm 2 mps 743 mmHg 83%
    01:00 -2°C° 0 mm 2 mps 744 mmHg 83%
    02:00 -2°C° 0 mm 3 mps 744 mmHg 83%
    03:00 -2°C° 0 mm 3 mps 745 mmHg 83%
    04:00 -4°C° 0 mm 4 mps 746 mmHg 83%
    05:00 -4°C° 0 mm 4 mps 746 mmHg 82%
    06:00 -4°C° 0 mm 4 mps 747 mmHg 81%
    07:00 -4°C° 0 mm 4 mps 748 mmHg 77%
    08:00 -3°C° 0 mm 4 mps 749 mmHg 72%
    09:00 -2°C° 0 mm 4 mps 749 mmHg 68%
    10:00 -2°C° 0 mm 4 mps 750 mmHg 65%
    11:00 -1°C° 0 mm 4 mps 751 mmHg 62%
    12:00 0°C° 0 mm 4 mps 751 mmHg 59%
    13:00 0°C° 0 mm 4 mps 752 mmHg 58%
    14:00 0°C° 0 mm 4 mps 752 mmHg 57%
    15:00 0°C° 0 mm 4 mps 753 mmHg 56%
    16:00 0°C° 0 mm 3 mps 754 mmHg 58%
    17:00 -1°C° 0 mm 3 mps 754 mmHg 60%
    18:00 -2°C° 0 mm 3 mps 755 mmHg 62%
    19:00 -2°C° 0 mm 2 mps 756 mmHg 64%
    20:00 -3°C° 0 mm 2 mps 756 mmHg 66%
    21:00 -3°C° 0 mm 2 mps 757 mmHg 67%
    22:00 -3°C° 0 mm 2 mps 757 mmHg 68%
    23:00 -2°C° 0 mm 1 mps 758 mmHg 70%

    Tomorrow, 19 February, Tuesday

    Time Temperature Precipitation Wind Pressure Humidity
    00:00 -2°C° 0 mm 1 mps 758 mmHg 71%
    01:00 -2°C° 0 mm 1 mps 758 mmHg 72%
    02:00 -2°C° 0 mm 1 mps 758 mmHg 73%
    03:00 -2°C° 0 mm 1 mps 759 mmHg 74%
    04:00 -2°C° 0 mm 1 mps 759 mmHg 74%
    05:00 -2°C° 0 mm 1 mps 759 mmHg 74%
    06:00 -2°C° 0 mm 1 mps 760 mmHg 74%
    07:00 -2°C° 0 mm 1 mps 760 mmHg 69%
    08:00 -1°C° 0 mm 1 mps 760 mmHg 63%
    09:00 0°C° 0 mm 1 mps 761 mmHg 57%
    10:00 +1°C° 0 mm 2 mps 760 mmHg 52%
    11:00 +2°C° 0 mm 2 mps 760 mmHg 47%
    12:00 +3°C° 0 mm 2 mps 759 mmHg 43%
    13:00 +3°C° 0 mm 2 mps 759 mmHg 43%
    14:00 +4°C° 0 mm 2 mps 758 mmHg 44%
    15:00 +4°C° 0 mm 2 mps 757 mmHg 45%
    16:00 +2°C° 0 mm 3 mps 756 mmHg 49%
    17:00 +1°C° 0 mm 3 mps 756 mmHg 53%
    18:00 0°C° 0 mm 4 mps 755 mmHg 57%
    19:00 0°C° 0 mm 3 mps 755 mmHg 58%
    20:00 0°C° 0 mm 3 mps 755 mmHg 59%
    21:00 0°C° 0 mm 3 mps 755 mmHg 61%
    22:00 0°C° 0.5 mm 3 mps 754 mmHg 70%
    23:00 -1°C° 0.5 mm 3 mps 753 mmHg 79%

    Day after tomorrow, 20 February, Wednesday

    Time Temperature Precipitation Wind Pressure Humidity
    00:00 -1°C° 0.5 mm 3 mps 752 mmHg 87%
    01:00 -1°C° 1.7 mm 3 mps 751 mmHg 90%
    02:00 -1°C° 1.7 mm 3 mps 750 mmHg 92%
    03:00 -1°C° 1.7 mm 3 mps 749 mmHg 94%
    04:00 -1°C° 0.8 mm 4 mps 749 mmHg 94%
    05:00 -1°C° 0.8 mm 4 mps 748 mmHg 94%
    06:00 -1°C° 0.8 mm 5 mps 747 mmHg 93%
    07:00 0°C° 0.6 mm 4 mps 747 mmHg 95%
    08:00 0°C° 0.6 mm 4 mps 746 mmHg 96%
    09:00 +1°C° 0.6 mm 4 mps 746 mmHg 98%
    10:00 +1°C° 0.5 mm 4 mps 745 mmHg 98%
    11:00 +3°C° 0.5 mm 4 mps 745 mmHg 98%
    12:00 +3°C° 0.5 mm 4 mps 744 mmHg 98%
    13:00 +4°C° 0.2 mm 4 mps 743 mmHg 97%
    14:00 +4°C° 0.2 mm 4 mps 742 mmHg 97%
    15:00 +5°C° 0.2 mm 4 mps 742 mmHg 97%
    16:00 +5°C° 0.2 mm 4 mps 741 mmHg 97%
    17:00 +6°C° 0.2 mm 4 mps 741 mmHg 97%
    18:00 +7°C° 0.2 mm 4 mps 740 mmHg 97%
    19:00 +8°C° 0.4 mm 4 mps 740 mmHg 97%
    20:00 +8°C° 0.4 mm 4 mps 740 mmHg 97%
    21:00 +10°C° 0.4 mm 3 mps 740 mmHg 97%
    22:00 +8°C° 0.1 mm 4 mps 740 mmHg 96%
    23:00 +8°C° 0.1 mm 5 mps 741 mmHg 94%

    21 February, Thursday

    Time Temperature Precipitation Wind Pressure Humidity
    00:00 +7°C° 0.1 mm 6 mps 741 mmHg 92%
    01:00 +6°C° 0 mm 5 mps 742 mmHg 90%
    02:00 +5°C° 0 mm 4 mps 743 mmHg 88%
    03:00 +4°C° 0 mm 4 mps 744 mmHg 86%
    04:00 +3°C° 0 mm 3 mps 745 mmHg 87%
    05:00 +2°C° 0 mm 3 mps 746 mmHg 88%
    06:00 +1°C° 0 mm 3 mps 746 mmHg 90%
    07:00 +2°C° 0 mm 3 mps 747 mmHg 87%
    08:00 +2°C° 0 mm 3 mps 748 mmHg 84%
    09:00 +3°C° 0 mm 3 mps 749 mmHg 81%
    10:00 +4°C° 0 mm 2 mps 749 mmHg 78%
    11:00 +5°C° 0 mm 2 mps 749 mmHg 76%
    12:00 +5°C° 0 mm 2 mps 749 mmHg 74%
    13:00 +6°C° 0 mm 2 mps 749 mmHg 71%
    14:00 +8°C° 0 mm 1 mps 749 mmHg 68%
    15:00 +9°C° 0 mm 1 mps 749 mmHg 65%
    16:00 +8°C° 0 mm 1 mps 749 mmHg 69%
    17:00 +7°C° 0 mm 1 mps 750 mmHg 73%
    18:00 +5°C° 0 mm 0 mps 750 mmHg 78%
    19:00 +6°C° 0 mm 1 mps 751 mmHg 79%
    20:00 +5°C° 0 mm 1 mps 751 mmHg 81%
    21:00 +5°C° 0 mm 1 mps 751 mmHg 83%
    22:00 +5°C° 0 mm 1 mps 751 mmHg 84%
    23:00 +5°C° 0 mm 1 mps 752 mmHg 85%

    22 February, Friday

    Time Temperature Precipitation Wind Pressure Humidity
    00:00 +4°C° 0 mm 1 mps 752 mmHg 86%
    01:00 +4°C° 0 mm 1 mps 752 mmHg 86%
    02:00 +4°C° 0 mm 1 mps 752 mmHg 86%
    03:00 +3°C° 0 mm 2 mps 752 mmHg 87%
    04:00 +2°C° 0 mm 2 mps 752 mmHg 87%
    05:00 +2°C° 0 mm 2 mps 752 mmHg 87%
    06:00 +2°C° 0 mm 2 mps 753 mmHg 87%
    07:00 +3°C° 0 mm 2 mps 753 mmHg 84%
    08:00 +3°C° 0 mm 2 mps 753 mmHg 82%
    09:00 +4°C° 0 mm 2 mps 754 mmHg 79%
    10:00 +6°C° 0 mm 2 mps 753 mmHg 74%
    11:00 +7°C° 0 mm 2 mps 753 mmHg 69%
    12:00 +8°C° 0 mm 2 mps 753 mmHg 64%
    13:00 +9°C° 0 mm 2 mps 753 mmHg 63%
    14:00 +9°C° 0 mm 2 mps 752 mmHg 62%
    15:00 +9°C° 0 mm 2 mps 752 mmHg 60%
    16:00 +8°C° 0 mm 2 mps 752 mmHg 65%
    17:00 +7°C° 0 mm 2 mps 752 mmHg 70%
    18:00 +6°C° 0 mm 2 mps 752 mmHg 74%
    19:00 +5°C° 0 mm 3 mps 752 mmHg 76%
    20:00 +4°C° 0 mm 3 mps 751 mmHg 78%
    21:00 +4°C° 0 mm 3 mps 751 mmHg 80%
    22:00 +4°C° 0 mm 3 mps 751 mmHg 82%
    23:00 +3°C° 0 mm 3 mps 750 mmHg 84%

    23 February, Saturday

    Time Temperature Precipitation Wind Pressure Humidity
    00:00 +4°C° 0 mm 2 mps 750 mmHg 86%
    01:00 +4°C° 0 mm 2 mps 749 mmHg 88%
    02:00 +4°C° 0 mm 2 mps 749 mmHg 89%
    03:00 +4°C° 0 mm 2 mps 748 mmHg 91%
    04:00 +4°C° 0 mm 2 mps 748 mmHg 92%
    05:00 +4°C° 0 mm 2 mps 748 mmHg 94%
    06:00 +5°C° 0 mm 2 mps 748 mmHg 95%
    07:00 +5°C° 0.2 mm 2 mps 747 mmHg 95%
    08:00 +7°C° 0.2 mm 1 mps 747 mmHg 94%
    09:00 +8°C° 0.2 mm 1 mps 747 mmHg 94%
    10:00 +9°C° 0 mm 2 mps 747 mmHg 92%
    11:00 +10°C° 0 mm 2 mps 746 mmHg 91%
    12:00 +13°C° 0 mm 2 mps 746 mmHg 89%
    13:00 +13°C° 0 mm 2 mps 745 mmHg 90%
    14:00 +14°C° 0 mm 2 mps 745 mmHg 92%
    15:00 +14°C° 0 mm 2 mps 744 mmHg 94%
    16:00 +14°C° 0 mm 2 mps 744 mmHg 95%
    17:00 +13°C° 0 mm 2 mps 743 mmHg 96%
    18:00 +13°C° 0 mm 2 mps 743 mmHg 97%
    19:00 +13°C° 2.3 mm 2 mps 742 mmHg 97%
    20:00 +12°C° 2.3 mm 3 mps 741 mmHg 97%
    21:00 +12°C° 2.3 mm 3 mps 740 mmHg 97%
    22:00 +13°C° 1.6 mm 4 mps 739 mmHg 96%
    23:00 +14°C° 1.6 mm 5 mps 738 mmHg 94%
    Show more